Regional Weather Roundup
Issued by NWS

Home | Current Version | Previous Version | Text Only | Print | Product List | Glossary Off
Versions: 1 2 3 4 5 6 7 8 9 10 11 12 13 14 15 16 17 18 19 20 21 22 23 24 25 26 27 28 29 30 31 32 33 34 35 36 37 38 39 40 41 42 43 44 45 46 47 48 49 50

000
ASUS43 KLMK 210010
RWRKY
KENTUCKY REGIONAL WEATHER ROUNDUP
NATIONAL WEATHER SERVICE LOUISVILLE KY
800 PM EDT MON OCT 20 2014

NOTE "FAIR" INDICATES FEW OR NO CLOUDS BELOW 12,000 FEET
WITH NO SIGNIFICANT WEATHER AND/OR OBSTRUCTIONS TO VISIBILITY.

KYZ001>023-026-027-061>063-070>075-210100-
WESTERN AND SOUTH CENTRAL KENTUCKY

CITY           SKY/WX    TMP DP  RH WIND       PRES   REMARKS
PADUCAH        CLEAR     65  55  70 SW5       29.95R
HENDERSON      CLOUDY    64  54  68 W8        29.93R
OWENSBORO      MOCLDY    65  55  69 SW9       29.93R
HOPKINSVILLE   CLEAR     62  53  73 S6        29.97R
BOWLING GREEN  CLEAR     63  50  62 SW5       29.97R
GLASGOW        CLEAR     57  49  73 SW3       29.97R
$$

KYZ024-025-028>034-038-045-046-053-210100-
NORTH CENTRAL KENTUCKY

CITY           SKY/WX    TMP DP  RH WIND       PRES   REMARKS
LOUISVILLE/SDF PTCLDY    63  52  67 S7        29.91R
LOUISVILLE/LOU CLEAR     61  52  72 S3        29.91R
FORT KNOX      PTCLDY    58  51  78 S7        29.91R
$$

KYZ035>037-039>044-047>052-055>060-089>105-210100-
NORTHEAST KENTUCKY

CITY           SKY/WX    TMP DP  RH WIND       PRES   REMARKS
LEXINGTON      CLEAR     57  48  72 SW8       29.94R
COVINGTON      PTCLDY    60  50  69 SW6       29.89R
FRANKFORT      PTCLDY    58  49  72 S5        29.92R
$$

KYZ054-064>069-076>088-106>120-210100-
SOUTHEAST KENTUCKY

CITY           SKY/WX    TMP DP  RH WIND       PRES   REMARKS
JACKSON        MOCLDY    54  49  83 CALM      29.95R
LONDON         PTCLDY    60  47  61 SW6       29.97R
SOMERSET       CLEAR     54  45  71 SW3       29.98R
MIDDLESBORO    CLEAR     54  50  88 CALM      29.99R
MONTICELLO     CLEAR     50  46  85 CALM      29.99R
$$




USA.gov is the U.S. government's official web portal to all federal, state and local government web resources and services.